Change the Weather History Date:

Wednesday, October 17, 2012

  Actual Average Record
Temperature  
Mean Temperature 18 °F -  
Max Temperature 21 °F 27 °F 48 °F (2013)
Min Temperature 15 °F 14 °F -9 °F (2008)
Degree Days  
Heating Degree Days 47    
Moisture  
Dew Point 14 °F    
Average Humidity 83    
Maximum Humidity 88    
Minimum Humidity 74    
Precipitation  
Precipitation 0.00 in - - ()
Snow  
Snow 0.00 in - - ()
Snow Depth 4.00 in    
Sea Level Pressure  
Sea Level Pressure 29.85 in    
Wind  
Wind Speed 3 mph (SE)    
Max Wind Speed 7 mph    
Max Gust Speed -    
Visibility 7 miles    
Events Snow    
Averages and records for this station are not official NWS values.
T = Trace of Precipitation, MM = Missing Value Source: NWS Daily Summary

Daily Weather History Graph

Daily Weather History Graph

Search for Another Location

Airport or City:

Trip Planner

Search our weather history database for the weather conditions in past years. The results will help you decide how hot, cold, wet, or windy it might be!

Date:

Astronomy

Oct. 17, 2012 Rise Set
Actual Time 8:51 AM AKDT 6:18 PM AKDT
Civil Twilight 8:00 AM AKDT 7:09 PM AKDT
Nautical Twilight 7:04 AM AKDT 8:05 PM AKDT
Astronomical Twilight 6:06 AM AKDT 9:02 PM AKDT
Moon 1:03 PM AKDT (10/17) 6:34 PM AKDT (10/17)
Length of Visible Light 11h 08m
Length of Day
9h 27m
Waxing Crescent, 8% of the Moon is Illuminated
Oct 17
Waxing Crescent
Oct 21
First Quarter
Oct 29
Full
Nov 6
Last Quarter
Nov 13
New

Hourly Weather History & Observations

Time (AKDT) Temp. Windchill Dew Point Humidity Pressure Visibility Wind Dir Wind Speed Gust Speed Precip Events Conditions
1:28 AM 19.4 °F 14.3 °F 15.8 °F 86% 29.72 in - South 3.5 mph - 0.00 in Snow Light Snow
1:34 AM 19.4 °F 14.3 °F 15.8 °F 86% 29.72 in 1.8 mi South 3.5 mph - 0.00 in Snow Light Snow
1:43 AM 19.4 °F 14.3 °F 15.8 °F 86% 29.73 in - South 3.5 mph - 0.00 in Snow Light Snow
1:56 AM 19.0 °F - 16.0 °F 88% 29.76 in 2.0 mi Calm Calm - 0.00 in Snow Light Snow
2:15 AM 19.4 °F 12.8 °F 15.8 °F 86% 29.74 in - SSE 4.6 mph - 0.00 in Snow Light Snow
2:40 AM 17.6 °F 10.7 °F 14.0 °F 86% 29.75 in 10.0 mi SSE 4.6 mph - 0.00 in   Overcast
2:54 AM 17.6 °F 12.3 °F 14.0 °F 86% 29.75 in 10.0 mi ESE 3.5 mph - 0.00 in   Overcast
2:56 AM 17.1 °F 11.7 °F 14.0 °F 88% 29.78 in 10.0 mi ESE 3.5 mph - 0.00 in   Overcast
3:25 AM 15.8 °F 7.2 °F 12.2 °F 86% 29.76 in 10.0 mi ESE 5.8 mph - N/A   Overcast
3:56 AM 16.0 °F 10.4 °F 12.9 °F 88% 29.81 in 3.0 mi ESE 3.5 mph - 0.00 in Snow Light Snow
4:08 AM 15.8 °F 8.6 °F 12.2 °F 86% 29.78 in 4.0 mi ESE 4.6 mph - 0.00 in Snow Light Snow
4:23 AM 15.8 °F 10.2 °F 12.2 °F 86% 29.78 in 2.5 mi East 3.5 mph - 0.00 in Snow Light Snow
4:39 AM 15.8 °F 10.2 °F 12.2 °F 86% 29.79 in - East 3.5 mph - 0.00 in Snow Light Snow
4:56 AM 15.1 °F 9.4 °F 12.0 °F 88% 29.83 in 6.0 mi ESE 3.5 mph - 0.00 in Snow Light Snow
5:17 AM 15.8 °F 10.2 °F 12.2 °F 86% 29.80 in 6.2 mi East 3.5 mph - 0.00 in Snow Light Snow
5:56 AM 16.0 °F - 12.9 °F 88% 29.84 in 10.0 mi Calm Calm - 0.00 in   Overcast
6:25 AM 17.6 °F 12.3 °F 12.2 °F 79% 29.82 in 7.0 mi ENE 3.5 mph - N/A   Mostly Cloudy
6:55 AM 17.6 °F - 12.2 °F 79% 29.86 in 7.0 mi Variable 2.3 mph - N/A   Overcast
7:55 AM 17.6 °F 12.3 °F 12.2 °F 79% 29.86 in 7.0 mi East 3.5 mph - N/A   Overcast
8:55 AM 17.6 °F 9.3 °F 12.2 °F 79% 29.87 in 7.0 mi East 5.8 mph - N/A   Overcast
9:10 AM 17.6 °F 9.3 °F 14.0 °F 86% 29.86 in 7.0 mi East 5.8 mph - N/A Snow Light Snow
9:55 AM 19.4 °F - 14.0 °F 80% 29.86 in 7.0 mi Variable 1.2 mph - N/A Snow Light Snow
10:55 AM 19.4 °F - 15.8 °F 86% 29.91 in 7.0 mi Variable 1.2 mph - N/A Snow Light Snow
11:55 AM 19.4 °F - 15.8 °F 86% 29.93 in 7.0 mi Variable 2.3 mph - N/A Snow Light Snow
12:55 PM 19.4 °F 14.3 °F 15.8 °F 86% 29.93 in 7.0 mi Variable 3.5 mph - N/A Snow Light Snow
1:43 PM 19.4 °F - 14.0 °F 80% 29.90 in 7.0 mi Variable 2.3 mph - N/A   Mostly Cloudy
1:55 PM 21.2 °F - 14.0 °F 74% 29.92 in 7.0 mi Calm Calm - N/A   Mostly Cloudy
2:50 PM 21.2 °F - 14.0 °F 74% 29.89 in 7.0 mi Calm Calm - N/A   Overcast
2:55 PM 21.2 °F - 14.0 °F 74% 29.92 in 7.0 mi Calm Calm - N/A   Overcast
3:44 PM 21.2 °F - 14.0 °F 74% 29.89 in 7.0 mi Calm Calm - N/A Snow Light Snow
3:55 PM 21.2 °F - 15.8 °F 80% 29.92 in 7.0 mi Calm Calm - N/A Snow Light Snow
4:55 PM 21.2 °F - 15.8 °F 80% 29.92 in 7.0 mi Calm Calm - N/A   Overcast
5:55 PM 21.2 °F - 15.8 °F 80% 29.92 in 7.0 mi Calm Calm - N/A   Overcast
6:55 PM 21.2 °F 13.6 °F 14.0 °F 74% 29.92 in 7.0 mi South 5.8 mph - N/A   Overcast
7:55 PM 21.2 °F - 15.8 °F 80% 29.92 in 7.0 mi Calm Calm - N/A   Overcast
8:55 PM 21.2 °F - 15.8 °F 80% 29.93 in 7.0 mi Calm Calm - N/A   Overcast
9:15 PM 19.4 °F 12.8 °F 15.8 °F 86% 29.90 in 7.0 mi SSW 4.6 mph - N/A Snow Light Snow
9:55 PM 19.4 °F - 15.8 °F 86% 29.93 in 7.0 mi Calm Calm - N/A Snow Light Snow
10:54 PM 19.4 °F 10.4 °F 15.8 °F 86% 29.90 in 2.5 mi West 6.9 mph - 0.00 in Snow Light Snow
10:56 PM 19.9 °F 11.1 °F 15.1 °F 81% 29.93 in 2.5 mi West 6.9 mph - 0.00 in Snow Light Snow
11:07 PM 19.4 °F 10.4 °F 15.8 °F 86% 29.90 in 6.2 mi West 6.9 mph - 0.00 in   Overcast
11:56 PM 19.9 °F 14.9 °F 15.1 °F 81% 29.93 in 10.0 mi West 3.5 mph - 0.00 in   Overcast